Regional Weather Roundup
Issued by NWS Cleveland, OH

Home | Current Version | Previous Version | Graphics & Text | Print | Product List | Glossary On
Versions: 1 2 3 4 5 6 7 8 9 10 11 12 13 14 15 16 17 18 19 20 21 22 23 24 25 26 27 28 29 30 31 32 33 34 35 36 37 38 39 40 41 42 43 44 45 46 47 48 49 50
000
ASUS41 KCLE 220012
RWRCLE
OHIO REGIONAL WEATHER ROUNDUP
NATIONAL WEATHER SERVICE WILMINGTON, OH
700 PM EST TUE NOV 21 2017

NOTE: "FAIR" INDICATES FEW OR NO CLOUDS BELOW 12,000 FEET WITH NO
SIGNIFICANT WEATHER AND/OR OBSTRUCTIONS TO VISIBILITY.

OHZ001>008-015>018-024>027-034-035-043-044-220100-
   NORTHWEST OHIO

CITY           SKY/WX    TMP DP  RH WIND       PRES   REMARKS
DEFIANCE       LGT RAIN  39  34  82 W10G18    29.97R
FINDLAY        CLOUDY    44  34  67 NW14      29.93R
TOLEDO EXPRESS LGT RAIN  41  39  93 W17G23    29.94R
TOLEDO EXEC    LGT RAIN  41  37  86 W16       29.94R
LIMA           CLOUDY    44  37  76 W15       29.95R
$$

OHZ009>014-019>023-028>033-038-089-220100-
   NORTHEAST OHIO

CITY           SKY/WX    TMP DP  RH WIND       PRES   REMARKS
CLE-HOPKINS    CLOUDY    51  34  52 SW12      29.91R
CLE-LAKEFRONT  CLOUDY    50  34  54 W9        29.88R
CUY CO. ARPT   CLOUDY    52  32  46 SW16      29.89R
LORAIN-ELYRIA  MOCLDY    48  32  53 W10       29.90R
ASHTABULA      MOCLDY    49  30  48 SW13      29.88R
AKRON-CANTON   MOCLDY    48  29  47 SW8       29.90S
WOOSTER        NOT AVBL
MANSFIELD      MOCLDY    48  33  56 W7        29.90R
YOUNGSTOWN     CLOUDY    47  28  47 SW6       29.89S
$$

OHZ042-051>053-060>062-070>072-077>081-220100-
  SOUTHWEST OHIO

CITY           SKY/WX    TMP DP  RH WIND       PRES   REMARKS
CINC-COVINGTON CLOUDY    51  33  50 SW6       29.97R
CINC-LUNKEN    FAIR      49  33  54 SW7       29.98R
HAMILTON       FAIR      49  34  56 W5        29.98R
DAYTON         CLOUDY    48  36  63 W12       29.96R
WRIGHT-PAT AFB MOCLDY    49  32  50 W9        29.95R
DAYTON GENERAL FAIR      51  32  48 W7        29.95R
WILMINGTON     FAIR      46  33  60 SW8       29.95R
$$

OHZ036-037-039>041-045>050-054>059-063>069-073>076-082>088-220100-
  CENTRAL AND SOUTHEAST OHIO

CITY           SKY/WX    TMP DP  RH WIND       PRES   REMARKS
COLUMBUS       CLOUDY    51  31  46 SW6       29.92R
OSU AIRPORT    FAIR      50  33  52 SW9       29.92S
BOLTON FIELD   CLEAR     45  34  65 SW6       29.93R
RICKENBACK AFB FAIR      45  32  58 W6        29.93R
NEWARK         FAIR      48  29  47 W3        29.92S
MARION         CLOUDY    49  33  54 W7        29.92R
LANCASTER      FAIR      49  32  52 SW3       29.93F
ZANESVILLE     FAIR      51  28  41 SW5       29.93R
NEW PHILLY     FAIR      50  31  48 SW5       29.92S
$$



USA.gov is the U.S. government's official web portal to all federal, state and local government web resources and services.